This is the latest recevied weather packets stored in our database for station/object LA3SP-1. If no packets are shown the sender has not sent any weather packets the latest 10 day(s).
| Time | Temp. | Humidity | Pressure | Rain* | Wind** | Luminosity | Snow |
|---|---|---|---|---|---|---|---|
| 1778162289 | 7.22° C | 42% | 1011.7 hPa | 0 mm | - | - | - |
| 1778161087 | 6.67° C | 40% | 1012 hPa | 0 mm | - | - | - |
| 1778160485 | 6.67° C | 40% | 1012 hPa | 0 mm | - | - | - |
| 1778159282 | 8.33° C | 39% | 1012 hPa | 0 mm | - | - | - |
| 1778158681 | 9.44° C | 42% | 1011.9 hPa | 0 mm | - | - | - |
| 1778158079 | 8.33° C | 41% | 1011.8 hPa | 0 mm | - | - | - |
| 1778157478 | 7.78° C | 41% | 1011.8 hPa | 0 mm | - | - | - |
| 1778156276 | 8.89° C | 41% | 1011.9 hPa | 0 mm | - | - | - |
| 1778155674 | 8.89° C | 44% | 1012 hPa | 0 mm | - | - | - |
| 1778154471 | 7.22° C | 45% | 1012.1 hPa | 0 mm | - | - | - |
| 1778153870 | 6.11° C | 45% | 1012 hPa | 0 mm | - | - | - |
| 1778152667 | 7.22° C | 45% | 1011.9 hPa | 0 mm | - | - | - |
| 1778152066 | 6.67° C | 45% | 1011.9 hPa | 0 mm | - | - | - |
| 1778151464 | 6.11° C | 45% | 1011.8 hPa | 0 mm | - | - | - |
| 1778150863 | 5.56° C | 46% | 1011.7 hPa | 0 mm | - | - | - |
| 1778150261 | 5.56° C | 46% | 1011.6 hPa | 0 mm | - | - | - |
| 1778149660 | 6.11° C | 46% | 1011.5 hPa | 0 mm | - | - | - |
| 1778148457 | 5° C | 48% | 1011.5 hPa | 0 mm | - | - | - |
| 1778147856 | 5° C | 48% | 1011.5 hPa | 0 mm | - | - | - |
| 1778147255 | 5.56° C | 48% | 1011.3 hPa | 0 mm | - | - | - |
| 1778146653 | 5° C | 49% | 1011.3 hPa | 0 mm | - | - | - |
| 1778145451 | 5° C | 51% | 1011.2 hPa | 0 mm | - | - | - |
| 1778144248 | 5° C | 52% | 1011.1 hPa | 0 mm | - | - | - |
| 1778143045 | 3.89° C | 55% | 1011.1 hPa | 0 mm | - | - | - |
| 1778142443 | 3.33° C | 55% | 1010.8 hPa | 0 mm | - | - | - |
* Rain latest 24 hours (hover to see other rain measurements)
** Current wind speed in m/s (hover to see current wind gust speed)